Tracking 28794 objects as of 19-Apr-2024
HD Live streaming from Space Station
objects crossing your sky now

FENGYUN 1C DEB

Track FENGYUN 1C DEB now!
10-day predictions


NORAD ID: 31388
Int'l Code: 1999-025BSU
Perigee: 842.3 km
Apogee: 912.7 km
Inclination: 98.8 °
Period: 102.4 minutes
Semi major axis: 7248 km
RCS: 0.0023 m2 (small)
Launch date: May 10, 1999
Source: People's Republic of China (PRC)
Launch site: Taiyaun Space Center, China (TSC)

Note: This is SATELLITE DEBRIS
Your satellite tracking list
Your tracking list is empty




NASA's NSSDC Master Catalog

Two Line Element Set (TLE):
1 31388U 99025BSU 24109.48613493  .00000444  00000-0  28905-3 0  9991
2 31388  98.7669 108.4511 0048546  99.5466  51.6796 14.06801829879575
Source of the keplerian elements: AFSPC